[[{"header":{"parameterUnit":"m.s-1","parameterCategory":1,"la1":30.2991,"la2":30.254,"lo1":-89.0895,"lo2":-89.0444,"dy":0.0017,"dx":0.0017,"nx":28,"ny":28,"refTime":"2023-10-22T21:00:00:Z","depth":0,"parameterNumber":2,"parameterNumberName":"U-component_of_WINDS"},"data":[0,0,0,0,0,0,0,0,0,0,0,0,0,0,0,0,0,0,0,0,0,0,0,0,0,0,0,0,0,0,0,0,0,0,0,0,0,0,0,0,0,0,0,0,0,0,0,0,0,0,0,0,0,0,0,0,0,0,-3.4281,-3.4281,0,-3.4249,-3.4249,-3.4248,-3.4119,-3.4116,-3.4113,-3.4111,-3.4078,-3.408,-3.4082,0,0,0,0,0,0,0,0,0,0,0,0,0,-3.4232,-3.4234,-3.4281,-3.4281,-3.428,-3.4249,-3.4249,-3.4248,-3.412,-3.4116,-3.4113,-3.4109,-3.4078,-3.408,-3.4082,0,0,0,0,0,0,0,0,0,0,0,0,0,-3.4232,-3.4234,-3.4281,-3.4212,-3.4206,-3.4249,-3.4249,-3.4248,-3.4121,-3.4116,-3.4112,-3.4108,-3.4077,-3.408,-3.4083,-3.419,0,0,-3.4091,-3.4093,0,0,0,0,0,0,0,0,-3.4232,-3.4234,-3.4223,-3.4217,-3.421,-3.4184,-3.4219,-3.4229,-3.4122,-3.4153,-3.4111,-3.4105,-3.4117,-3.4116,-3.412,-3.4188,-3.4187,-3.4092,-3.4093,-3.4095,-3.4095,0,0,0,0,0,0,0,-3.4233,-3.4235,-3.4268,-3.4223,-3.4215,-3.4184,-3.4179,-3.4221,-3.4161,-3.415,-3.4141,-3.4139,-3.4113,-3.4118,-3.4118,-3.4186,-3.4091,-3.4094,-3.4096,-3.4097,-3.4343,-3.4347,0,0,0,0,0,0,-3.4242,-3.4236,-3.4269,-3.4267,-3.4211,-3.4188,-3.4183,-3.4197,-3.416,-3.415,-3.4142,-3.4133,-3.4115,-3.4115,-3.4117,-3.4241,-3.4095,-3.4097,-3.4099,-3.4338,-3.4344,-3.4349,0,0,0,0,0,0,-3.4242,-3.4246,-3.4271,-3.4249,-3.425,-3.4194,-3.4211,-3.4198,-3.4203,-3.4154,-3.4143,-3.4159,-3.4111,-3.4113,-3.4173,-3.4238,-3.4098,-3.4101,-3.4332,-3.434,-3.4346,-3.4489,0,0,0,0,0,0,-3.4241,-3.4247,-3.4286,-3.4251,-3.4251,-3.4327,-3.4214,-3.4201,-3.4208,-3.4195,-3.4166,-3.4157,-3.4108,-3.4169,-3.4176,-3.4239,-3.4103,-3.4326,-3.4336,-3.4344,-3.4478,-3.45,-3.4519,0,0,0,0,0,-3.424,-3.4327,-3.4289,-3.4294,-3.43,-3.4331,-3.4331,-3.4273,-3.4214,-3.4254,-3.4223,-3.4158,-3.423,-3.4177,-3.4183,-3.4248,-3.4322,-3.4333,-3.4343,-3.4469,-3.4496,-3.4519,0,0,0,0,0,0,-3.4371,-3.4321,-3.4278,-3.4357,-3.435,-3.4309,-3.4357,-3.4303,-3.4312,-3.4299,-3.4227,-3.4222,-3.4293,-3.4276,-3.4218,-3.4351,-3.4265,-3.4278,-3.4359,-3.4384,-3.4404,-3.4406,-3.4106,0,0,0,0,0,-3.441,-3.4439,-3.4394,-3.4468,-3.4467,-3.4413,-3.4425,-3.4381,-3.437,-3.4366,-3.4339,-3.4331,-3.4352,-3.4367,-3.4383,-3.4476,-3.4468,-3.4524,-3.4544,-3.4561,-3.4573,-3.4622,-3.4647,-3.4384,-3.4384,-3.4384,0,0,-3.4489,-3.4465,-3.4488,-3.4494,-3.4483,-3.4516,-3.4411,-3.445,-3.4474,-3.4371,-3.4427,-3.4408,-3.4394,-3.4471,-3.4504,-3.446,-3.4644,-3.4575,-3.4589,-3.4591,-3.4636,-3.4661,-3.4683,-3.4392,-3.439,-3.4389,0,0,-3.465,-3.4635,-3.4695,-3.4687,-3.4672,-3.4636,-3.4652,-3.462,-3.4603,-3.4658,-3.4583,-3.4611,-3.4648,-3.4642,-3.4644,-3.4807,-3.4748,-3.4814,-3.492,-3.4969,-3.499,-3.5008,-3.5067,-3.5089,-3.4826,-3.4826,-3.4826,0,-3.475,-3.4796,-3.4733,-3.4778,-3.4784,-3.4694,-3.4756,-3.4751,-3.4742,-3.4748,-3.4699,-3.4745,-3.473,-3.4805,-3.4846,-3.485,-3.4865,-3.4816,-3.4992,-3.501,-3.5025,-3.5081,-3.5103,-3.4834,-3.4833,-3.4833,-3.4832,0,-3.492,-3.4954,-3.5005,-3.5,-3.5012,-3.5065,-3.5011,-3.503,-3.4987,-3.4957,-3.5015,-3.4994,-3.5005,-3.502,-3.4977,-3.5091,-3.5064,-3.5005,-3.4917,-3.506,-3.5111,-3.5131,-3.4846,-3.4843,-3.4841,-3.4839,0,0,-3.516,-3.5123,-3.5143,-3.514,-3.5119,-3.5144,-3.5194,-3.5205,-3.5224,-3.5222,-3.5263,-3.5298,-3.5244,-3.5246,-3.5202,-3.5246,-3.5377,-3.5181,-3.5179,-3.5219,-3.5502,-3.5547,-3.5573,-3.5339,-3.5343,-3.5346,-3.5504,0,-3.5314,-3.5397,-3.5344,-3.5436,-3.5467,-3.5384,-3.5428,-3.542,-3.5395,-3.5418,-3.5389,-3.5415,-3.5342,-3.5343,-3.5382,-3.5353,-3.5433,-3.5341,-3.5376,-3.5378,-3.5382,-3.5599,-3.5645,-3.5795,-3.5523,-3.5526,-3.5529,0,-3.5503,-3.5512,-3.5607,-3.5582,-3.5593,-3.5633,-3.5641,-3.5664,-3.5654,-3.5633,-3.5638,-3.5584,-3.5632,-3.5547,-3.5613,-3.5551,-3.5563,-3.5551,-3.5556,-3.5556,-3.5462,-3.5606,-3.5842,-3.5865,-3.5559,-3.5557,-3.5555,0,-3.567,-3.5704,-3.5766,-3.5767,-3.5739,-3.5769,-3.5759,-3.5745,-3.5757,-3.5764,-3.5771,-3.5784,-3.5791,-3.5802,-3.5754,-3.5696,-3.5827,-3.5737,-3.5811,-3.5813,-3.5841,-3.584,-3.6083,-3.585,-3.585,-3.5849,-3.5849,0,-3.5847,-3.5908,-3.5841,-3.5879,-3.5946,-3.5886,-3.5954,-3.5935,-3.5924,-3.5958,-3.5887,-3.592,-3.5854,-3.5881,-3.5844,-3.5905,-3.5909,-3.5893,-3.5882,-3.5899,-3.5901,-3.5905,-3.5894,-3.5855,-3.5854,-3.5853,-3.5852,0,-3.6043,-3.6,-3.6062,-3.6032,-3.6026,-3.6077,-3.6051,-3.6086,-3.6057,-3.61,-3.6107,-3.6061,-3.6089,-3.6043,-3.6065,-3.604,-3.6125,-3.6098,-3.6129,-3.6121,-3.6197,-3.6191,-3.6451,-3.6482,-3.623,-3.6232,-3.6234,0,-3.6158,-3.6204,-3.618,-3.6198,-3.6192,-3.6221,-3.6233,-3.6177,-3.6192,-3.6187,-3.6222,-3.6245,-3.6259,-3.6309,-3.6277,-3.6295,-3.6268,-3.6358,-3.627,-3.6286,-3.6269,-3.6267,-3.6272,-3.6376,-3.6379,-3.6381,-3.6383,0,-3.6368,-3.6345,-3.6365,-3.638,-3.6396,-3.6404,-3.6407,-3.6426,-3.6366,-3.6388,-3.6416,-3.6428,-3.6452,-3.6476,-3.6486,-3.6475,-3.642,-3.6412,-3.643,-3.6447,-3.6463,-3.6456,-3.6178,-3.6405,-3.6403,-3.6402,-3.64,-3.6399,-3.6526,-3.6564,-3.6554,-3.658,-3.6577,-3.6582,-3.6613,-3.6589,-3.6612,-3.6628,-3.6593,-3.6631,-3.6622,-3.6631,-3.6627,-3.6656,-3.6616,-3.6642,-3.6648,-3.6656,-3.6668,-3.6459,-3.6657,-3.6657,-3.6656,-3.6655,-3.6655,0,-3.6732,-3.6722,-3.6747,-3.6754,-3.6776,-3.6723,-3.6725,-3.6745,-3.678,-3.6777,-3.6794,-3.6828,-3.6851,-3.6824,-3.6842,-3.6871,-3.6846,-3.6878,-3.6875,-3.6874,-3.6702,-3.6685,-3.6898,-3.6898,-3.6897,-3.6897,-3.6897,-3.6897,-3.6842,-3.6903,-3.6881,-3.6941,-3.693,-3.6967,-3.6973,-3.6978,-3.6976,-3.7017,-3.7037,-3.7019,-3.7007,-3.7025,-3.7044,-3.7035,-3.7046,-3.7086,-3.7069,-3.6909,-3.6885,-3.6863,-3.6846,-3.7089,-3.7089,-3.7238,-3.7239,-3.724]},{"header":{"parameterUnit":"m.s-1","parameterCategory":1,"la1":30.2991,"la2":30.254,"lo1":-89.0895,"lo2":-89.0444,"dy":0.0017,"dx":0.0017,"nx":28,"ny":28,"refTime":"2023-10-22T21:00:00:Z","depth":0,"parameterNumber":3,"parameterNumberName":"V-component_of_WINDS"},"data":[0,0,0,0,0,0,0,0,0,0,0,0,0,0,0,0,0,0,0,0,0,0,0,0,0,0,0,0,0,0,0,0,0,0,0,0,0,0,0,0,0,0,0,0,0,0,0,0,0,0,0,0,0,0,0,0,0,0,0.5256,0.5256,0,0.527,0.527,0.527,0.5223,0.5221,0.522,0.5219,0.5233,0.5234,0.5236,0,0,0,0,0,0,0,0,0,0,0,0,0,0.5191,0.5192,0.5256,0.5256,0.5257,0.527,0.527,0.527,0.5223,0.5221,0.522,0.5218,0.5232,0.5234,0.5236,0,0,0,0,0,0,0,0,0,0,0,0,0,0.5213,0.5193,0.5256,0.5235,0.5233,0.527,0.527,0.527,0.5223,0.5221,0.5219,0.5217,0.5231,0.5234,0.5236,0.5295,0,0,0.5244,0.5245,0,0,0,0,0,0,0,0,0.5212,0.5216,0.5238,0.5236,0.5234,0.5243,0.5252,0.5279,0.5224,0.5227,0.5219,0.5216,0.5238,0.524,0.5247,0.5296,0.5296,0.5244,0.5246,0.5247,0.5248,0,0,0,0,0,0,0,0.5211,0.5215,0.5262,0.5238,0.5236,0.5225,0.5226,0.5257,0.5244,0.5227,0.5223,0.5225,0.5236,0.5244,0.5247,0.5296,0.5244,0.5247,0.5248,0.5249,0.5398,0.54,0,0,0,0,0,0,0.5212,0.5214,0.5261,0.5262,0.5218,0.5228,0.5229,0.5242,0.5244,0.5242,0.5227,0.5223,0.5241,0.5244,0.5247,0.5319,0.5247,0.5249,0.5251,0.5396,0.5399,0.5401,0,0,0,0,0,0,0.5211,0.5216,0.5261,0.5237,0.5242,0.5231,0.5247,0.5243,0.5252,0.5244,0.5242,0.5238,0.524,0.5244,0.5284,0.5318,0.5251,0.5253,0.5393,0.5397,0.54,0.5461,0,0,0,0,0,0,0.5209,0.5216,0.5238,0.5238,0.5243,0.5297,0.5249,0.5245,0.5256,0.5251,0.5254,0.5252,0.5238,0.5281,0.5287,0.5321,0.5255,0.539,0.5394,0.5399,0.5456,0.5466,0.5475,0,0,0,0,0,0.5207,0.5253,0.5239,0.5245,0.527,0.5299,0.5302,0.5286,0.5259,0.5281,0.5277,0.5252,0.5313,0.5285,0.5292,0.5327,0.5387,0.5393,0.5398,0.5451,0.5464,0.5475,0,0,0,0,0,0,0.5256,0.5253,0.5237,0.5285,0.5293,0.5291,0.5318,0.5299,0.5314,0.5309,0.5287,0.5289,0.5334,0.5334,0.5303,0.5386,0.5346,0.5353,0.5384,0.5396,0.5405,0.5405,0.5257,0,0,0,0,0,0.5273,0.5297,0.5292,0.5335,0.534,0.5329,0.5341,0.5328,0.5335,0.5338,0.5337,0.5345,0.5366,0.5381,0.54,0.5455,0.5457,0.5483,0.5492,0.55,0.5507,0.554,0.5552,0.5419,0.5419,0.5419,0,0,0.5308,0.5309,0.5325,0.5346,0.535,0.5377,0.5332,0.5361,0.5381,0.5342,0.5382,0.5381,0.5389,0.5439,0.546,0.544,0.5544,0.5507,0.5513,0.5516,0.5547,0.5559,0.557,0.5423,0.5422,0.5422,0,0,0.5385,0.5387,0.5424,0.543,0.5438,0.5431,0.544,0.5442,0.5441,0.548,0.5453,0.5476,0.5513,0.5521,0.5529,0.5613,0.5592,0.562,0.567,0.5702,0.5713,0.5722,0.5755,0.5766,0.5626,0.5626,0.5626,0,0.5426,0.5464,0.5446,0.5478,0.5489,0.5457,0.5496,0.5503,0.5516,0.5525,0.5503,0.5551,0.5553,0.5606,0.5627,0.5634,0.5645,0.562,0.5713,0.5722,0.573,0.5761,0.5773,0.563,0.5629,0.5629,0.5629,0,0.5517,0.5544,0.5574,0.559,0.5604,0.5639,0.5627,0.5644,0.563,0.5626,0.5668,0.5671,0.5691,0.5702,0.5688,0.5754,0.5742,0.5716,0.5676,0.5747,0.5776,0.5787,0.5635,0.5634,0.5633,0.5632,0,0,0.5625,0.5632,0.5643,0.5652,0.566,0.5681,0.5715,0.5737,0.5753,0.5764,0.5794,0.5827,0.5805,0.5815,0.5802,0.583,0.59,0.5801,0.5801,0.5822,0.5976,0.5997,0.6011,0.5885,0.5887,0.5889,0.5976,0,0.5702,0.5763,0.5748,0.5808,0.5835,0.5806,0.5837,0.5846,0.5843,0.5866,0.5863,0.5888,0.5855,0.5862,0.5888,0.5886,0.5931,0.5879,0.5915,0.5917,0.5916,0.6025,0.6046,0.6129,0.5987,0.5989,0.599,0,0.5801,0.5818,0.5881,0.5888,0.5898,0.5926,0.5947,0.5968,0.5978,0.5975,0.5988,0.597,0.6007,0.5966,0.6017,0.5982,0.5996,0.5997,0.6,0.6004,0.5959,0.6035,0.6154,0.6168,0.6007,0.6006,0.6005,0,0.5877,0.5915,0.5958,0.5966,0.5974,0.5995,0.6,0.6008,0.6023,0.604,0.605,0.6071,0.6084,0.6101,0.609,0.6061,0.6145,0.6102,0.6144,0.6145,0.6164,0.6163,0.629,0.6169,0.6169,0.6169,0.6169,0,0.5966,0.6006,0.5993,0.602,0.6066,0.605,0.6095,0.6096,0.6105,0.6133,0.6108,0.6135,0.6118,0.6144,0.6135,0.6181,0.6186,0.6185,0.6183,0.6189,0.6189,0.6199,0.6194,0.6172,0.6172,0.6171,0.617,0,0.6058,0.6051,0.6097,0.6102,0.6104,0.6138,0.6143,0.6169,0.6165,0.6201,0.6209,0.6203,0.6233,0.6224,0.6254,0.6249,0.6308,0.6297,0.6305,0.6303,0.6347,0.6344,0.6486,0.6505,0.637,0.6372,0.6373,0,0.6117,0.6147,0.6157,0.6174,0.6181,0.6209,0.6225,0.6211,0.6228,0.6244,0.6269,0.6297,0.6318,0.6367,0.6367,0.6391,0.6382,0.643,0.6386,0.6392,0.6386,0.6386,0.639,0.644,0.6441,0.6442,0.6443,0,0.6222,0.6218,0.6241,0.6265,0.6285,0.6303,0.6318,0.6334,0.6321,0.6342,0.6373,0.639,0.6423,0.6452,0.6475,0.648,0.6461,0.6458,0.6469,0.6476,0.6481,0.6482,0.6332,0.6455,0.6453,0.6453,0.6452,0.6452,0.6301,0.6329,0.6341,0.6369,0.6379,0.6395,0.6421,0.6422,0.6447,0.6474,0.6464,0.6501,0.6513,0.6542,0.6551,0.658,0.6562,0.6578,0.6582,0.6587,0.6594,0.6475,0.6584,0.6583,0.6583,0.6583,0.6582,0,0.6408,0.6415,0.6441,0.6465,0.6488,0.6467,0.6484,0.6505,0.6538,0.6551,0.6574,0.6611,0.6639,0.6642,0.6669,0.6692,0.6684,0.67,0.6699,0.6701,0.6607,0.6596,0.6706,0.6706,0.6706,0.6706,0.6706,0.6706,0.6466,0.6513,0.6511,0.6563,0.657,0.6606,0.6618,0.6633,0.6644,0.6687,0.6711,0.6713,0.6723,0.6752,0.6778,0.6778,0.679,0.681,0.6807,0.672,0.6707,0.6696,0.6685,0.6812,0.6812,0.6899,0.69,0.69]}]]